Wind_Speed
41 42 41 39 40 40 40 40 39 39 39 39 39 38 37 36 36 36 35 35 34 34 35 35 35 35 35 36 38 39 40 40 41 41 41 42 43 43 44 45 46 46 47 47
42 43 41 41 41 41 41 41 40 40 40 40 40 39 38 38 37 37 36 36 36 36 37 37 37 37 37 38 38 39 41 42 42 42 43 43 44 44 45 45 46 47 47 47
43 42 42 42 42 42 42 42 41 41 41 42 42 41 39 38 38 38 38 38 37 37 38 38 38 38 39 39 39 40 41 42 43 43 43 43 44 45 46 46 47 47 48 48
45 44 43 43 43 43 42 42 42 42 42 43 43 43 40 39 39 39 39 39 39 38 39 39 39 39 39 40 40 41 41 42 43 43 44 44 45 46 46 47 47 48 48 48
44 44 44 44 43 43 44 43 43 43 44 45 44 45 42 40 39 40 40 39 39 39 39 39 39 40 40 40 41 41 42 43 44 44 45 45 46 47 47 48 49 49 49 49
44 44 44 44 43 44 44 44 44 44 45 46 44 45 44 40 39 40 40 40 40 41 41 41 40 40 41 41 42 42 43 43 44 44 44 45 47 48 48 49 50 50 50 51
44 44 44 43 43 43 43 43 43 44 45 46 44 44 44 41 40 40 40 40 40 40 41 41 41 42 42 43 43 43 43 44 44 45 45 46 48 49 50 50 50 51 52 52
42 42 43 43 43 42 42 42 43 44 45 45 45 44 43 41 40 39 39 39 39 40 40 41 42 42 43 43 43 43 44 44 45 46 47 48 49 50 51 51 51 52 52 53
43 42 42 42 42 42 42 42 41 42 44 45 45 45 44 42 40 39 39 39 39 40 40 41 41 41 42 43 42 43 44 44 45 45 47 48 49 50 50 51 51 52 53 53
41 42 41 41 42 43 42 42 42 42 42 43 45 44 42 40 40 39 39 39 39 39 39 40 40 41 41 41 42 42 43 44 45 46 47 47 48 48 49 50 52 53 54 54
38 40 40 39 40 40 40 41 42 43 44 43 43 43 42 40 39 39 38 37 37 38 39 39 39 40 40 40 40 41 42 43 44 46 47 47 48 48 49 50 52 53 53 53
37 38 39 40 40 39 39 40 40 41 43 43 42 43 41 40 39 39 38 37 37 38 38 38 38 39 39 40 40 40 41 42 44 45 47 48 48 48 49 50 51 51 51 52
37 38 37 38 40 41 40 40 40 40 41 42 42 42 41 40 39 39 39 39 39 39 39 38 38 38 39 39 40 41 41 42 43 45 46 46 46 47 48 49 49 50 50 50
36 38 38 38 38 39 40 40 40 40 41 42 41 41 40 40 40 40 40 40 40 40 40 39 39 39 39 39 39 40 41 42 43 44 44 44 45 46 46 47 47 48 48 48
36 37 38 39 39 38 39 39 40 41 41 42 40 40 40 40 40 41 41 40 39 39 39 40 39 39 39 39 39 40 40 41 41 42 41 42 43 44 45 45 46 46 47 47
35 36 37 37 38 39 39 38 39 39 39 40 40 39 39 40 40 40 39 39 39 39 39 40 40 40 40 39 39 40 40 40 40 40 41 42 42 43 44 44 44 45 45 44
34 35 36 36 36 38 39 38 38 38 38 39 39 38 38 37 38 38 38 38 38 38 38 39 39 40 40 40 40 39 39 39 39 40 40 41 41 42 42 42 43 43 42 42
32 33 35 36 36 37 37 36 37 37 37 38 37 37 37 36 36 36 36 37 37 37 37 38 38 38 40 40 39 39 39 39 39 39 40 40 40 41 40 41 40 40 39 39
31 32 33 33 34 35 34 34 34 34 35 35 36 36 36 36 36 36 36 36 36 36 37 37 37 38 38 39 39 38 38 38 38 38 39 38 39 39 38 38 38 37 37 37
29 30 32 33 33 33 32 32 33 34 34 33 34 35 35 35 35 35 35 35 36 36 36 37 37 37 36 36 36 37 37 36 36 36 37 37 37 37 37 37 36 36 36 36
26 28 29 30 32 32 31 30 31 32 32 32 33 34 35 35 35 34 34 34 35 35 35 35 35 35 35 35 35 35 35 35 34 35 36 36 36 36 36 36 36 35 34 33
25 26 27 28 29 30 30 30 31 31 32 31 32 32 33 33 33 33 33 33 33 33 33 33 33 33 34 34 35 35 34 34 34 34 35 35 35 34 34 35 34 33 33 32
23 24 25 27 27 27 27 28 29 29 29 29 30 30 31 31 31 31 32 32 32 32 32 32 32 33 33 33 34 35 34 34 34 35 34 34 33 33 33 32 32 32 31 30
22 23 23 24 24 25 25 25 26 26 27 28 28 29 30 30 30 31 31 32 32 32 32 32 32 32 32 32 33 33 33 33 33 32 32 32 32 31 31 31 30 29 29 28
22 23 23 23 23 23 24 24 25 25 26 26 27 27 28 28 29 30 30 31 31 31 31 31 31 32 32 32 32 32 31 31 30 30 30 30 30 30 29 29 28 27 27 27
20 21 22 22 22 23 23 24 25 25 25 26 26 26 26 27 28 28 29 30 30 30 30 30 31 31 31 31 31 31 31 30 29 28 28 28 27 28 28 27 27 26 26 26
Wind_Direction
242 242 242 243 244 245 245 245 246 246 246 247 248 249 249 249 250 251 251 252 253 253 254 256 257 258 259 259 258 257 256 256 257 258 260 261 263 264 266 266 267 267 268 268
242 242 242 243 243 245 246 246 247 247 247 248 248 249 250 251 251 251 252 253 254 255 256 257 258 260 260 261 261 259 258 257 257 258 260 261 263 265 266 267 267 268 269 270
243 243 242 243 243 245 246 247 248 248 248 249 250 249 250 252 252 252 253 254 255 257 258 259 259 260 261 261 261 260 258 257 258 259 260 262 263 264 266 267 269 270 270 271
242 242 242 243 244 245 246 247 248 249 249 250 250 251 249 251 252 253 254 255 257 258 258 259 260 260 261 262 261 260 259 258 258 259 261 262 263 265 267 269 270 270 271 272
243 243 243 244 244 245 246 247 248 249 251 251 250 253 251 251 252 253 255 256 257 257 258 259 260 260 261 262 262 261 260 259 259 260 261 263 264 266 267 269 270 271 271 272
243 243 244 244 244 245 246 247 248 249 250 251 251 254 253 252 252 254 255 256 257 257 258 259 260 261 261 262 262 261 260 260 260 261 262 264 266 267 268 269 270 271 272 273
243 243 243 243 244 244 245 246 248 249 250 252 252 254 255 254 253 254 256 257 257 257 258 260 261 262 262 263 263 262 261 260 261 261 263 265 267 268 269 270 270 271 272 273
241 242 242 242 243 244 244 245 247 250 252 253 254 255 255 256 256 256 257 258 259 259 260 261 262 262 262 263 262 261 260 261 261 262 264 266 268 269 269 270 270 272 272 273
239 240 239 240 240 241 242 243 246 250 252 254 254 255 256 257 258 258 258 259 261 261 262 262 262 263 263 262 262 261 261 261 262 264 266 266 268 268 269 270 271 272 273 274
238 239 239 239 239 240 241 243 244 247 250 252 254 256 257 258 261 261 261 262 263 264 264 263 264 264 263 262 262 261 262 262 263 265 267 267 268 269 270 271 272 273 274 275
237 238 238 237 237 238 239 241 244 247 249 251 255 257 258 260 261 262 263 264 264 264 264 264 264 263 262 262 263 262 262 262 264 267 267 267 268 269 270 272 273 274 274 275
237 238 239 238 238 237 238 240 243 246 250 252 255 257 258 260 262 263 263 263 264 263 263 263 263 262 262 263 263 263 263 264 266 267 268 269 269 270 271 273 274 274 275 276
236 237 239 240 239 238 239 241 243 246 249 251 254 257 258 260 262 263 263 264 264 264 263 263 262 262 263 263 264 264 265 266 267 268 270 270 270 271 273 274 275 275 276 278
236 237 237 240 241 241 241 242 244 246 249 251 253 256 257 259 261 263 263 264 265 265 263 262 262 263 263 263 264 265 267 268 269 270 271 270 271 273 274 275 276 277 277 278
237 239 239 240 242 242 242 243 245 248 250 252 253 255 256 258 261 262 263 264 264 265 264 262 262 263 264 264 265 266 267 269 270 270 270 271 272 274 275 276 277 278 279 278
238 240 241 242 243 244 244 244 246 248 249 252 254 255 256 258 259 261 261 262 263 263 263 261 262 263 264 265 266 267 269 270 270 269 270 271 273 275 276 277 277 278 278 277
240 243 244 244 244 246 247 245 247 248 249 252 255 256 257 258 259 261 261 261 262 263 263 263 263 262 263 264 265 267 269 270 270 270 270 272 274 275 277 277 278 277 276 276
242 244 245 246 245 247 247 246 248 250 251 252 254 255 256 258 260 262 261 261 262 262 262 262 261 262 263 264 265 267 269 270 271 270 270 271 274 275 276 276 276 276 275 275
243 244 245 246 246 248 247 247 248 250 250 251 253 254 256 258 260 262 260 261 262 262 262 262 262 262 264 264 265 267 268 269 270 270 270 271 273 274 274 274 274 275 275 275
244 244 245 246 247 248 246 247 248 249 250 251 253 255 257 259 261 262 260 260 261 262 262 263 263 264 265 264 265 266 267 268 268 269 269 271 272 273 272 272 272 273 273 274
242 244 245 247 248 249 248 250 251 252 252 253 255 257 258 259 260 261 261 260 260 261 262 262 263 264 264 264 265 267 267 267 268 268 269 271 272 272 272 271 272 272 272 272
243 245 246 247 250 251 251 252 253 255 254 255 256 256 257 258 259 259 260 260 260 260 260 260 261 262 263 264 265 267 268 268 268 269 270 271 272 272 272 271 272 272 272 272
243 245 246 247 250 252 252 253 253 254 255 255 255 256 257 257 257 258 259 259 259 259 259 260 261 261 262 263 265 266 267 268 268 269 269 270 271 271 271 270 271 272 272 272
242 242 244 245 248 249 251 252 253 254 255 254 254 254 255 256 256 258 259 259 260 260 259 260 261 261 262 263 265 265 267 267 267 268 268 269 270 270 270 270 271 272 271 270
247 247 248 249 248 248 249 250 252 253 254 255 255 255 256 255 255 257 259 259 260 260 261 262 262 263 263 263 265 265 267 268 268 268 269 270 269 269 271 272 271 270 270 271
246 249 250 250 250 251 250 250 252 253 254 255 256 256 255 256 257 259 260 260 260 260 262 262 264 265 264 264 265 266 267 267 267 267 268 269 269 270 270 270 270 269 270 271
Height
5674 5678 5682 5685 5688 5691 5693 5696 5699 5701 5703 5706 5708 5711 5713 5715 5716 5718 5719 5720 5722 5723 5724 5724 5725 5726 5726 5727 5728 5729 5731 5732 5734 5735 5737 5738 5739 5740 5741 5741 5741 5741 5741 5741
5663 5667 5672 5674 5677 5680 5683 5686 5689 5691 5693 5696 5698 5701 5704 5705 5707 5709 5710 5711 5713 5714 5714 5715 5716 5717 5717 5717 5718 5719 5720 5721 5723 5725 5727 5728 5729 5730 5730 5730 5730 5730 5730 5730
5652 5658 5660 5663 5666 5669 5672 5676 5679 5681 5683 5685 5688 5691 5694 5696 5697 5699 5700 5702 5703 5704 5705 5705 5706 5707 5707 5707 5708 5708 5709 5710 5712 5714 5716 5717 5718 5718 5719 5719 5719 5719 5718 5718
5640 5645 5649 5652 5655 5658 5662 5665 5667 5670 5672 5674 5677 5679 5685 5686 5687 5689 5690 5692 5693 5694 5694 5695 5696 5696 5696 5697 5697 5697 5698 5699 5701 5703 5704 5706 5707 5707 5708 5708 5707 5707 5706 5706
5629 5634 5637 5641 5645 5647 5650 5654 5656 5658 5660 5663 5666 5667 5673 5676 5678 5679 5681 5682 5683 5683 5684 5684 5685 5685 5686 5686 5686 5686 5687 5688 5690 5692 5693 5694 5695 5695 5696 5695 5695 5695 5694 5693
5617 5621 5625 5629 5633 5636 5639 5643 5645 5646 5648 5651 5656 5657 5661 5665 5668 5669 5670 5671 5672 5672 5673 5673 5674 5674 5674 5675 5675 5675 5676 5677 5679 5680 5681 5682 5683 5683 5683 5683 5682 5682 5681 5680
5605 5609 5613 5617 5621 5624 5628 5632 5634 5635 5637 5640 5644 5646 5650 5654 5656 5658 5659 5660 5661 5661 5662 5662 5662 5663 5663 5663 5663 5663 5664 5665 5667 5668 5669 5670 5670 5670 5670 5670 5670 5669 5668 5667
5593 5598 5602 5606 5610 5614 5617 5621 5624 5626 5628 5630 5633 5635 5640 5642 5645 5646 5648 5648 5649 5650 5651 5651 5651 5651 5651 5651 5651 5652 5652 5653 5655 5656 5657 5657 5657 5657 5657 5656 5656 5655 5654 5653
5581 5586 5590 5594 5598 5603 5605 5609 5613 5615 5616 5619 5621 5624 5628 5630 5633 5635 5637 5638 5638 5639 5639 5639 5639 5639 5639 5639 5639 5640 5641 5641 5643 5643 5643 5644 5643 5643 5643 5643 5642 5641 5640 5639
5570 5574 5579 5583 5587 5590 5595 5598 5601 5603 5605 5607 5610 5614 5617 5620 5622 5624 5626 5627 5627 5628 5628 5628 5628 5628 5627 5627 5628 5629 5629 5630 5631 5631 5631 5631 5631 5630 5630 5629 5628 5627 5626 5624
5560 5564 5568 5572 5576 5580 5584 5588 5590 5592 5595 5598 5600 5606 5607 5609 5611 5612 5614 5615 5616 5617 5617 5617 5617 5617 5617 5617 5617 5618 5618 5619 5619 5619 5619 5619 5618 5617 5617 5616 5614 5613 5611 5609
5550 5554 5557 5562 5566 5569 5573 5576 5580 5583 5585 5588 5591 5596 5596 5598 5600 5601 5603 5604 5605 5606 5606 5606 5607 5607 5607 5607 5608 5608 5608 5608 5608 5607 5607 5607 5606 5605 5604 5602 5601 5599 5597 5595
5540 5544 5548 5551 5556 5559 5562 5566 5569 5572 5575 5577 5581 5586 5586 5588 5589 5590 5592 5593 5594 5595 5596 5596 5596 5597 5597 5597 5597 5597 5597 5597 5597 5596 5595 5594 5593 5592 5591 5590 5588 5586 5584 5582
5530 5534 5538 5542 5544 5548 5552 5556 5559 5561 5564 5567 5571 5574 5576 5577 5578 5579 5580 5581 5582 5584 5584 5585 5586 5586 5586 5587 5587 5586 5586 5585 5585 5584 5583 5582 5581 5580 5579 5577 5575 5573 5571 5569
5520 5524 5527 5531 5534 5537 5541 5545 5548 5551 5553 5557 5560 5563 5565 5566 5567 5568 5569 5570 5571 5572 5573 5574 5575 5575 5575 5576 5576 5576 5575 5574 5573 5572 5571 5571 5569 5568 5566 5565 5563 5561 5558 5556
5510 5515 5518 5522 5525 5527 5531 5535 5538 5540 5543 5546 5548 5552 5553 5555 5556 5557 5558 5559 5560 5561 5562 5563 5564 5564 5565 5565 5565 5565 5564 5563 5562 5561 5560 5559 5558 5557 5555 5553 5551 5549 5547 5545
5502 5506 5509 5513 5515 5518 5522 5526 5528 5531 5533 5536 5538 5542 5543 5544 5546 5547 5548 5548 5549 5550 5551 5552 5552 5553 5554 5554 5554 5554 5553 5552 5551 5550 5549 5548 5547 5545 5544 5542 5540 5538 5536 5534
5494 5497 5499 5503 5506 5509 5515 5517 5519 5521 5523 5526 5528 5530 5532 5533 5535 5536 5537 5538 5539 5540 5541 5541 5542 5542 5543 5543 5543 5543 5542 5541 5540 5539 5539 5537 5536 5535 5533 5531 5529 5527 5526 5524
5485 5488 5490 5493 5496 5499 5505 5507 5509 5511 5513 5516 5518 5519 5521 5523 5524 5526 5526 5527 5528 5529 5530 5531 5531 5532 5532 5532 5532 5532 5531 5530 5530 5529 5528 5527 5526 5524 5523 5521 5519 5518 5517 5515
5476 5479 5483 5485 5487 5491 5496 5498 5499 5502 5504 5506 5508 5509 5511 5513 5514 5516 5516 5517 5518 5519 5519 5520 5521 5521 5522 5522 5522 5522 5521 5520 5520 5519 5518 5516 5515 5514 5513 5511 5510 5508 5507 5506
5469 5471 5474 5476 5478 5481 5487 5488 5490 5494 5495 5497 5498 5499 5501 5503 5504 5505 5506 5507 5507 5508 5509 5509 5510 5511 5511 5512 5512 5512 5511 5511 5510 5509 5508 5507 5506 5504 5503 5502 5501 5499 5498 5497
5461 5464 5466 5468 5471 5476 5477 5478 5482 5483 5485 5486 5488 5489 5491 5492 5493 5494 5495 5496 5497 5498 5499 5499 5500 5501 5501 5502 5502 5502 5502 5501 5501 5500 5499 5498 5496 5495 5494 5493 5491 5490 5489 5488
5454 5457 5459 5462 5465 5466 5468 5469 5471 5473 5475 5477 5479 5480 5482 5483 5484 5485 5486 5487 5488 5489 5489 5490 5490 5491 5492 5492 5492 5492 5492 5492 5492 5491 5489 5488 5487 5486 5484 5483 5482 5481 5480 5479
5448 5449 5451 5453 5456 5458 5459 5461 5463 5465 5466 5468 5470 5471 5473 5474 5475 5476 5477 5478 5479 5479 5480 5481 5481 5482 5482 5482 5482 5483 5483 5482 5482 5481 5480 5479 5478 5477 5476 5475 5474 5473 5472 5471
5441 5443 5444 5446 5448 5450 5452 5453 5455 5457 5458 5460 5461 5462 5463 5465 5466 5467 5468 5469 5469 5470 5471 5472 5472 5473 5473 5473 5473 5473 5473 5473 5472 5472 5471 5470 5469 5469 5468 5467 5466 5465 5465 5463
5435 5436 5438 5440 5442 5443 5445 5446 5447 5449 5450 5452 5453 5454 5455 5456 5457 5458 5459 5459 5460 5461 5461 5462 5463 5463 5463 5464 5464 5464 5464 5463 5463 5463 5462 5462 5461 5460 5460 5459 5458 5457 5457 5456